Location: Unspecified
(0.0000°N, 0.0000°E)
Time: 23:27:23
(UTC+00:00)

Transit 2A - Visible Passes

Search period start: 31 August 2016 00:00
Search period end: 10 September 2016 00:00
Orbit: 592 x 968 km, 66.7° (Epoch: 31 August)

Date Brightness Start Highest point End Pass type
(mag) Time Alt. Az. Time Alt. Az. Time Alt. Az.
31 Aug 8.3 05:25:43 10° SSE 05:30:27 30° ESE 05:35:32 10° NE visible
01 Sep 8.8 04:52:53 10° SSE 04:56:35 18° ESE 05:00:29 10° ENE visible
02 Sep 9.3 04:21:44 10° ESE 04:22:41 10° ESE 04:23:41 10° E visible
02 Sep 8.7 18:38:40 10° WNW 18:41:15 14° WSW 18:43:45 10° SW visible
03 Sep 6.3 05:26:01 10° SSW 05:31:32 89° WNW 05:37:37 10° NNE visible
04 Sep 6.9 04:52:14 10° S 04:57:38 56° ESE 05:03:32 10° NNE visible
05 Sep 7.8 04:18:48 10° S 04:23:45 34° ESE 04:29:07 10° NE visible
06 Sep 8.5 03:45:46 10° SSE 03:49:53 21° ESE 03:54:14 10° ENE visible
06 Sep 7.1 05:27:54 10° SW 05:32:49 30° WNW 05:38:05 10° N visible
07 Sep 8.9 03:13:43 10° SE 03:16:00 12° ESE 03:18:20 10° E visible
07 Sep 6.5 04:53:54 13° SW 04:58:49 49° WNW 05:04:42 10° N visible
08 Sep 6.1 04:22:28 37° SSW 04:24:52 80° WNW 04:31:00 10° NNE visible
09 Sep 6.5 03:50:57 64° ESE 03:50:57 64° ESE 03:56:59 10° NNE visible
